Weather History for Evansville, IN

Change the Weather History Date:

Sunday, April 7, 2013

  Actual Average Record
Temperature  
Mean Temperature 66 °F 53 °F  
Max Temperature 76 °F 65 °F 84 °F (1959)
Min Temperature 55 °F 42 °F 23 °F (1990)
Degree Days  
Heating Degree Days 0 12  
Month to date heating degree days 113 91  
Since 1 July heating degree days 4257 4257  
Cooling Degree Days 1 0  
Month to date cooling degree days 1 0  
Year to date cooling degree days 1 3  
Growing Degree Days 15 (Base 50)    
Moisture  
Dew Point 47 °F    
Average Humidity 61    
Maximum Humidity 80    
Minimum Humidity 42    
Precipitation  
Precipitation 0.00 in 0.14 in 1.02 in (2000)
Month to date precipitation 0.00 0.93  
Year to date precipitation 13.61 11.44  
Snow  
Snow 0.00 in 0.00 in 0.50 in (1982)
Month to date snowfall 0.0 0.0  
Since 1 July snowfall 12.3 11.7  
Snow Depth 0.00 in    
Sea Level Pressure  
Sea Level Pressure 29.93 in    
Wind  
Wind Speed 9 mph (SSW)    
Max Wind Speed 16 mph    
Max Gust Speed 22 mph    
Visibility 10 miles    
Events      
T = Trace of Precipitation, MM = Missing Value Source: NWS Daily Summary

Daily Weather History Graph

Daily Weather History Graph

Search for Another Location

Airport:

Trip Planner

Search our weather history database for the weather conditions in past years. The results will help you decide how hot, cold, wet, or windy it might be!

Date:

Astronomy

Apr. 07, 2013 Rise Set
Actual Time 6:25 AM CDT 7:18 PM CDT
Civil Twilight 5:59 AM CDT 7:45 PM CDT
Nautical Twilight 5:27 AM CDT 8:17 PM CDT
Astronomical Twilight 4:54 AM CDT 8:50 PM CDT
Moon 4:40 AM CDT (4/7) 4:52 PM CDT (4/7)
Length of Visible Light 13h 46m
Length of Day
12h 53m
Waning Crescent, 8% of the Moon is Illuminated
Apr 7
Waning Crescent
Apr 10
New
Apr 18
First Quarter
Apr 25
Full
May 2
Last Quarter

Hourly Weather History & Observations

Time (CDT) Temp. Dew Point Humidity Pressure Visibility Wind Dir Wind Speed Gust Speed Precip Events Conditions
12:54 AM 60.1 °F 37.9 °F 44% 29.91 in 10.0 mi SSW 10.4 mph - N/A   Scattered Clouds
1:54 AM 61.0 °F 39.9 °F 46% 29.90 in 10.0 mi SSW 10.4 mph - N/A   Mostly Cloudy
2:54 AM 59.0 °F 41.0 °F 51% 29.89 in 10.0 mi SSW 9.2 mph - N/A   Scattered Clouds
3:54 AM 59.0 °F 41.0 °F 51% 29.89 in 10.0 mi SSW 11.5 mph - N/A   Clear
4:54 AM 57.9 °F 41.0 °F 53% 29.89 in 10.0 mi SSW 10.4 mph - N/A   Clear
5:54 AM 57.0 °F 42.1 °F 57% 29.91 in 10.0 mi WSW 10.4 mph - N/A   Clear
6:54 AM 55.0 °F 42.1 °F 62% 29.94 in 10.0 mi SSW 9.2 mph - N/A   Clear
7:54 AM 60.1 °F 43.0 °F 53% 29.95 in 10.0 mi SW 11.5 mph - N/A   Clear
8:54 AM 63.0 °F 45.0 °F 52% 29.96 in 10.0 mi SW 11.5 mph - N/A   Clear
9:54 AM 66.0 °F 46.9 °F 50% 29.96 in 10.0 mi WSW 12.7 mph - N/A   Overcast
10:54 AM 70.0 °F 48.9 °F 47% 29.97 in 10.0 mi SW 9.2 mph - N/A   Scattered Clouds
11:54 AM 70.0 °F 50.0 °F 49% 29.96 in 10.0 mi SSW 12.7 mph - N/A   Mostly Cloudy
12:54 PM 70.0 °F 50.0 °F 49% 29.96 in 10.0 mi SSW 13.8 mph - N/A   Scattered Clouds
1:54 PM 73.9 °F 52.0 °F 46% 29.95 in 10.0 mi SW 12.7 mph 18.4 mph N/A   Mostly Cloudy
2:54 PM 75.0 °F 53.1 °F 46% 29.94 in 10.0 mi SW 11.5 mph 17.3 mph N/A   Mostly Cloudy
3:54 PM 73.9 °F 53.1 °F 48% 29.93 in 10.0 mi SSW 13.8 mph 20.7 mph N/A   Mostly Cloudy
4:54 PM 73.0 °F 52.0 °F 48% 29.92 in 10.0 mi South 13.8 mph - N/A   Partly Cloudy
5:54 PM 73.0 °F 53.1 °F 49% 29.92 in 10.0 mi South 11.5 mph - N/A   Clear
6:54 PM 71.1 °F 52.0 °F 51% 29.91 in 8.0 mi SSW 9.2 mph - N/A   Mostly Cloudy
7:54 PM 68.0 °F 52.0 °F 56% 29.92 in 6.0 mi South 4.6 mph - N/A   Haze
8:54 PM 64.0 °F 51.1 °F 63% 29.94 in 10.0 mi SSW 3.5 mph - N/A   Clear
9:54 PM 62.1 °F 51.1 °F 67% 29.96 in 7.0 mi Calm Calm - N/A   Clear
10:54 PM 59.0 °F 51.1 °F 75% 29.95 in 9.0 mi Calm Calm - N/A   Clear
11:54 PM 57.0 °F 51.1 °F 81% 29.96 in 9.0 mi Calm Calm - N/A   Overcast